Time,TemperatureF,DewpointF,PressureIn,WindDirection,WindDirectionDegrees,WindSpeedMPH,WindSpeedGustMPH,Humidity,HourlyPrecipIn,Conditions,Clouds,dailyrainin,SoftwareType,DateUTC
2015-07-07 00:04:00,61.0,47.0,29.47,ENE,71,0.0,2.7,60,0.00,,---,0.00,VWS V15.00,2015-07-07 07:04:00,
2015-07-07 00:09:00,60.8,46.8,29.47,ENE,71,0.0,0.0,60,0.00,,---,0.00,VWS V15.00,2015-07-07 07:09:00,
2015-07-07 00:14:00,60.6,46.7,29.47,ENE,71,0.0,0.0,60,0.00,,---,0.00,VWS V15.00,2015-07-07 07:14:00,
2015-07-07 00:19:00,60.4,46.9,29.47,ENE,71,0.0,0.0,61,0.00,,---,0.00,VWS V15.00,2015-07-07 07:19:00,
2015-07-07 00:24:00,60.3,47.2,29.47,ENE,72,0.0,0.0,62,0.00,,---,0.00,VWS V15.00,2015-07-07 07:24:00,
2015-07-07 00:29:00,60.1,47.0,29.47,ENE,73,0.0,0.0,62,0.00,,---,0.00,VWS V15.00,2015-07-07 07:29:00,
2015-07-07 00:34:00,59.9,47.3,29.47,ENE,73,0.0,0.0,63,0.00,,---,0.00,VWS V15.00,2015-07-07 07:34:00,
2015-07-07 00:39:00,59.7,47.1,29.47,ENE,73,0.0,0.0,63,0.00,,---,0.00,VWS V15.00,2015-07-07 07:39:00,
2015-07-07 00:44:00,59.5,47.4,29.47,ENE,73,0.0,0.0,64,0.00,,---,0.00,VWS V15.00,2015-07-07 07:44:00,
2015-07-07 00:54:00,59.4,46.8,29.47,ENE,73,0.0,0.0,63,0.00,,---,0.00,VWS V15.00,2015-07-07 07:54:00,
2015-07-07 00:59:00,59.2,47.0,29.47,ENE,73,0.0,2.2,64,0.00,,---,0.00,VWS V15.00,2015-07-07 07:59:00,
2015-07-07 01:04:00,59.2,46.6,29.47,West,270,0.0,0.0,63,0.00,,---,0.00,VWS V15.00,2015-07-07 08:04:00,
2015-07-07 01:09:00,59.2,46.6,29.47,West,270,0.0,0.0,63,0.00,,---,0.00,VWS V15.00,2015-07-07 08:09:00,
2015-07-07 01:19:00,58.8,47.5,29.47,SSE,150,0.0,0.0,66,0.00,,---,0.00,VWS V15.00,2015-07-07 08:19:00,
2015-07-07 01:24:00,58.8,47.5,29.47,SSE,150,0.0,0.0,66,0.00,,---,0.00,VWS V15.00,2015-07-07 08:24:00,
2015-07-07 01:29:00,58.6,47.3,29.47,SSE,150,0.0,0.0,66,0.00,,---,0.00,VWS V15.00,2015-07-07 08:29:00,
2015-07-07 01:34:00,58.6,47.3,29.47,SSE,150,0.0,0.0,66,0.00,,---,0.00,VWS V15.00,2015-07-07 08:34:00,
2015-07-07 01:39:00,58.5,47.2,29.47,SSE,149,0.0,0.0,66,0.00,,---,0.00,VWS V15.00,2015-07-07 08:39:00,
2015-07-07 01:44:00,58.5,47.6,29.50,SSE,149,2.2,3.1,67,0.00,,---,0.00,VWS V15.00,2015-07-07 08:44:00,
2015-07-07 01:49:00,58.5,47.6,29.50,SSE,149,0.0,4.0,67,0.00,,---,0.00,VWS V15.00,2015-07-07 08:49:00,
2015-07-07 01:54:00,58.5,47.6,29.50,SSE,149,0.0,0.0,67,0.00,,---,0.00,VWS V15.00,2015-07-07 08:54:00,
2015-07-07 01:59:00,58.3,47.4,29.47,SSE,150,0.0,4.0,67,0.00,,---,0.00,VWS V15.00,2015-07-07 08:59:00,
2015-07-07 02:04:00,58.3,47.8,29.47,SSE,150,0.0,0.0,68,0.00,,---,0.00,VWS V15.00,2015-07-07 09:04:00,
2015-07-07 02:09:00,58.3,47.8,29.47,SSE,150,0.0,0.0,68,0.00,,---,0.00,VWS V15.00,2015-07-07 09:09:00,
2015-07-07 02:14:00,58.1,47.6,29.50,SSE,149,0.0,3.1,68,0.00,,---,0.00,VWS V15.00,2015-07-07 09:14:00,
2015-07-07 02:19:00,58.1,47.6,29.50,SSE,150,0.0,0.0,68,0.00,,---,0.00,VWS V15.00,2015-07-07 09:19:00,
2015-07-07 02:24:00,58.1,48.0,29.50,SSE,150,0.0,0.0,69,0.00,,---,0.00,VWS V15.00,2015-07-07 09:24:00,
2015-07-07 02:29:00,58.1,47.6,29.50,SSE,150,0.0,0.0,68,0.00,,---,0.00,VWS V15.00,2015-07-07 09:29:00,
2015-07-07 02:34:00,58.1,48.0,29.50,SSE,150,0.0,0.0,69,0.00,,---,0.00,VWS V15.00,2015-07-07 09:34:00,
2015-07-07 02:39:00,58.1,48.0,29.50,SSE,150,0.0,0.0,69,0.00,,---,0.00,VWS V15.00,2015-07-07 09:39:00,
2015-07-07 02:44:00,58.1,48.0,29.50,SSE,150,0.0,0.0,69,0.00,,---,0.00,VWS V15.00,2015-07-07 09:44:00,
2015-07-07 02:49:00,58.1,48.0,29.50,SSE,150,0.0,0.0,69,0.00,,---,0.00,VWS V15.00,2015-07-07 09:49:00,
2015-07-07 02:54:00,57.9,47.8,29.50,SSE,150,0.0,0.0,69,0.00,,---,0.00,VWS V15.00,2015-07-07 09:54:00,
2015-07-07 02:59:00,57.9,47.8,29.50,SSE,150,0.0,0.0,69,0.00,,---,0.00,VWS V15.00,2015-07-07 09:59:00,
2015-07-07 03:09:00,57.7,47.7,29.50,SSE,150,2.2,2.2,69,0.00,,---,0.00,VWS V15.00,2015-07-07 10:09:00,
2015-07-07 03:14:00,57.7,48.0,29.50,SSE,150,0.0,0.0,70,0.00,,---,0.00,VWS V15.00,2015-07-07 10:14:00,
2015-07-07 03:19:00,57.7,48.0,29.50,SSE,150,0.0,0.0,70,0.00,,---,0.00,VWS V15.00,2015-07-07 10:19:00,
2015-07-07 03:24:00,57.6,47.9,29.50,SSE,150,0.0,0.0,70,0.00,,---,0.00,VWS V15.00,2015-07-07 10:24:00,
2015-07-07 03:29:00,57.6,47.9,29.50,SSE,150,0.0,0.0,70,0.00,,---,0.00,VWS V15.00,2015-07-07 10:29:00,
2015-07-07 03:34:00,57.4,47.7,29.50,SSE,150,0.0,0.0,70,0.00,,---,0.00,VWS V15.00,2015-07-07 10:34:00,
2015-07-07 03:39:00,57.4,47.7,29.50,SSE,150,0.0,0.0,70,0.00,,---,0.00,VWS V15.00,2015-07-07 10:39:00,
2015-07-07 03:44:00,57.2,47.5,29.50,SSE,150,0.0,0.0,70,0.00,,---,0.00,VWS V15.00,2015-07-07 10:44:00,
2015-07-07 03:49:00,57.2,47.5,29.50,SSE,150,0.0,0.0,70,0.00,,---,0.00,VWS V15.00,2015-07-07 10:49:00,
2015-07-07 03:54:00,57.0,47.7,29.50,SSE,150,0.0,0.0,71,0.00,,---,0.00,VWS V15.00,2015-07-07 10:54:00,
2015-07-07 03:59:00,57.0,47.7,29.50,SSE,150,0.0,0.0,71,0.00,,---,0.00,VWS V15.00,2015-07-07 10:59:00,
2015-07-07 04:04:00,56.8,47.9,29.50,SSE,149,0.0,0.0,72,0.00,,---,0.00,VWS V15.00,2015-07-07 11:04:00,
2015-07-07 04:09:00,56.8,47.9,29.50,SSE,150,0.0,0.0,72,0.00,,---,0.00,VWS V15.00,2015-07-07 11:09:00,
2015-07-07 04:14:00,56.8,47.9,29.50,SSE,150,0.0,0.0,72,0.00,,---,0.00,VWS V15.00,2015-07-07 11:14:00,
2015-07-07 04:19:00,56.7,47.8,29.50,SSE,150,0.0,0.0,72,0.00,,---,0.00,VWS V15.00,2015-07-07 11:19:00,
2015-07-07 04:24:00,56.7,47.8,29.50,SSE,149,0.0,0.0,72,0.00,,---,0.00,VWS V15.00,2015-07-07 11:24:00,
2015-07-07 04:29:00,56.7,47.8,29.50,SSE,150,0.0,0.0,72,0.00,,---,0.00,VWS V15.00,2015-07-07 11:29:00,
2015-07-07 04:34:00,56.7,47.8,29.50,SSE,150,0.0,0.0,72,0.00,,---,0.00,VWS V15.00,2015-07-07 11:34:00,
2015-07-07 04:39:00,56.5,47.6,29.50,SSE,150,0.0,0.0,72,0.00,,---,0.00,VWS V15.00,2015-07-07 11:39:00,
2015-07-07 04:44:00,56.3,47.4,29.50,SSE,150,0.0,0.0,72,0.00,,---,0.00,VWS V15.00,2015-07-07 11:44:00,
2015-07-07 04:49:00,56.3,47.4,29.50,SSE,150,0.0,0.0,72,0.00,,---,0.00,VWS V15.00,2015-07-07 11:49:00,
2015-07-07 04:54:00,56.3,47.4,29.50,SSE,150,0.0,0.0,72,0.00,,---,0.00,VWS V15.00,2015-07-07 11:54:00,
2015-07-07 04:59:00,56.1,47.2,29.50,SSE,150,0.0,0.0,72,0.00,,---,0.00,VWS V15.00,2015-07-07 11:59:00,
2015-07-07 05:04:00,56.1,47.2,29.50,SSE,149,0.0,0.0,72,0.00,,---,0.00,VWS V15.00,2015-07-07 12:04:00,
2015-07-07 05:09:00,55.9,47.1,29.50,SSE,150,0.0,0.0,72,0.00,,---,0.00,VWS V15.00,2015-07-07 12:09:00,
2015-07-07 05:14:00,55.9,47.1,29.50,SSE,150,0.0,0.0,72,0.00,,---,0.00,VWS V15.00,2015-07-07 12:14:00,
2015-07-07 05:19:00,55.9,47.1,29.50,SSE,150,0.0,0.0,72,0.00,,---,0.00,VWS V15.00,2015-07-07 12:19:00,
2015-07-07 05:24:00,55.9,47.1,29.50,SSE,150,0.0,0.0,72,0.00,,---,0.00,VWS V15.00,2015-07-07 12:24:00,
2015-07-07 05:29:00,55.8,47.2,29.50,SSE,150,0.0,0.0,73,0.00,,---,0.00,VWS V15.00,2015-07-07 12:29:00,
2015-07-07 05:34:00,55.8,47.2,29.50,SSE,149,0.0,0.0,73,0.00,,---,0.00,VWS V15.00,2015-07-07 12:34:00,
2015-07-07 05:38:00,55.8,47.2,29.50,SSE,149,0.0,0.0,73,0.00,,---,0.00,VWS V15.00,2015-07-07 12:38:00,
2015-07-07 05:43:00,55.8,47.2,29.50,SSE,149,0.0,0.0,73,0.00,,---,0.00,VWS V15.00,2015-07-07 12:43:00,
2015-07-07 05:48:00,55.8,47.2,29.50,SSE,149,0.0,0.0,73,0.00,,---,0.00,VWS V15.00,2015-07-07 12:48:00,
2015-07-07 05:53:00,55.8,47.2,29.50,SSE,150,0.0,0.0,73,0.00,,---,0.00,VWS V15.00,2015-07-07 12:53:00,
2015-07-07 05:58:00,55.8,47.2,29.50,SSE,150,0.0,0.0,73,0.00,,---,0.00,VWS V15.00,2015-07-07 12:58:00,
2015-07-07 06:03:00,55.9,47.8,29.50,SSE,149,0.0,0.0,74,0.00,,---,0.00,VWS V15.00,2015-07-07 13:03:00,
2015-07-07 06:08:00,56.1,48.0,29.50,SSE,150,0.0,0.0,74,0.00,,---,0.00,VWS V15.00,2015-07-07 13:08:00,
2015-07-07 06:13:00,56.3,48.1,29.50,SSE,150,0.0,0.0,74,0.00,,---,0.00,VWS V15.00,2015-07-07 13:13:00,
2015-07-07 06:18:00,56.5,48.3,29.50,SSE,150,0.0,0.0,74,0.00,,---,0.00,VWS V15.00,2015-07-07 13:18:00,
2015-07-07 06:23:00,56.8,49.0,29.50,SSE,150,0.0,0.0,75,0.00,,---,0.00,VWS V15.00,2015-07-07 13:23:00,
2015-07-07 06:28:00,57.0,49.2,29.53,SSE,150,0.0,0.0,75,0.00,,---,0.00,VWS V15.00,2015-07-07 13:28:00,
2015-07-07 06:33:00,57.4,49.2,29.53,SSE,150,0.0,0.0,74,0.00,,---,0.00,VWS V15.00,2015-07-07 13:33:00,
2015-07-07 06:38:00,57.6,49.3,29.53,SSE,150,0.0,0.0,74,0.00,,---,0.00,VWS V15.00,2015-07-07 13:38:00,
2015-07-07 06:43:00,57.9,49.7,29.53,SSE,149,0.0,0.0,74,0.00,,---,0.00,VWS V15.00,2015-07-07 13:43:00,
2015-07-07 06:48:00,58.1,49.5,29.53,SSE,150,0.0,0.0,73,0.00,,---,0.00,VWS V15.00,2015-07-07 13:48:00,
2015-07-07 06:53:00,58.5,49.5,29.53,SSE,149,0.0,0.0,72,0.00,,---,0.00,VWS V15.00,2015-07-07 13:53:00,
2015-07-07 06:58:00,58.6,48.9,29.53,SSE,150,0.0,0.0,70,0.00,,---,0.00,VWS V15.00,2015-07-07 13:58:00,
2015-07-07 07:03:00,58.8,48.7,29.53,SSE,150,0.0,0.0,69,0.00,,---,0.00,VWS V15.00,2015-07-07 14:03:00,
2015-07-07 07:08:00,59.2,48.6,29.53,SSE,150,0.0,0.0,68,0.00,,---,0.00,VWS V15.00,2015-07-07 14:08:00,
2015-07-07 07:13:00,59.4,48.0,29.53,SSE,150,0.0,0.0,66,0.00,,---,0.00,VWS V15.00,2015-07-07 14:13:00,
2015-07-07 07:18:00,59.7,48.0,29.53,SSE,150,0.0,2.7,65,0.00,,---,0.00,VWS V15.00,2015-07-07 14:18:00,
2015-07-07 07:23:00,59.9,47.7,29.53,SSE,150,0.0,0.0,64,0.00,,---,0.00,VWS V15.00,2015-07-07 14:23:00,
2015-07-07 07:28:00,60.3,47.6,29.53,SSE,149,0.0,0.0,63,0.00,,---,0.00,VWS V15.00,2015-07-07 14:28:00,
2015-07-07 07:33:00,60.4,47.4,29.53,SSE,150,0.0,0.0,62,0.00,,---,0.00,VWS V15.00,2015-07-07 14:33:00,
2015-07-07 07:38:00,60.4,46.5,29.53,SSE,150,0.0,0.0,60,0.00,,---,0.00,VWS V15.00,2015-07-07 14:38:00,
2015-07-07 07:43:00,60.6,46.7,29.53,SSE,150,0.0,0.0,60,0.00,,---,0.00,VWS V15.00,2015-07-07 14:43:00,
2015-07-07 07:48:00,60.8,46.4,29.53,SSE,150,0.0,0.0,59,0.00,,---,0.00,VWS V15.00,2015-07-07 14:48:00,
2015-07-07 07:53:00,61.0,46.1,29.53,SSE,147,4.0,4.0,58,0.00,,---,0.00,VWS V15.00,2015-07-07 14:53:00,
2015-07-07 07:58:00,60.8,46.0,29.53,SE,146,2.2,2.7,58,0.00,,---,0.00,VWS V15.00,2015-07-07 14:58:00,
2015-07-07 08:03:00,61.0,46.1,29.53,SSE,147,0.0,0.0,58,0.00,,---,0.00,VWS V15.00,2015-07-07 15:03:00,
2015-07-07 08:08:00,61.2,45.8,29.53,SE,146,0.0,2.2,57,0.00,,---,0.00,VWS V15.00,2015-07-07 15:08:00,
2015-07-07 08:13:00,61.3,46.5,29.53,SSE,147,0.0,2.2,58,0.00,,---,0.00,VWS V15.00,2015-07-07 15:13:00,
2015-07-07 08:18:00,61.3,46.0,29.53,SE,137,0.0,0.0,57,0.00,,---,0.00,VWS V15.00,2015-07-07 15:18:00,
2015-07-07 08:23:00,61.5,46.2,29.53,SE,137,0.0,0.0,57,0.00,,---,0.00,VWS V15.00,2015-07-07 15:23:00,
2015-07-07 08:28:00,61.7,45.9,29.53,SE,137,3.6,3.6,56,0.00,,---,0.00,VWS V15.00,2015-07-07 15:28:00,
2015-07-07 08:33:00,61.7,44.9,29.53,SE,128,0.0,5.4,54,0.00,,---,0.00,VWS V15.00,2015-07-07 15:33:00,